Location: Le Petit-Vavre
(46.5081°N, 1.5239°E)
Time: 18:45:48
(UTC+00:00)

Cosmos 44 Rocket - Pass Details

Date: 03 March 2021
Orbit: 636 x 754 km, 65.1° (Epoch: 14 April)

Event Time Altitude Azimuth Distance (km) Brightness Sun altitude
Rises 18:19:31 0° 324° (NW) 3,209 7.2 -7.1°
Reaches altitude 10° 18:21:55 10° 325° (NW) 2,285 6.4 -7.5°
Maximum altitude 18:27:11 80° 53° (NE) 769 3.5 -8.4°
Drops below altitude 10° 18:32:23 10° 141° (SE) 2,257 5.6 -9.3°
Sets 18:34:45 0° 142° (SE) 3,166 6.3 -9.7°
